Wind_Speed
25 25 24 24 24 23 22 22 22 22 23 24 26 28 29 30 32 33 34 35 36 37 37 38 39 40 41 42 43 44 46 47 48 49 50 51 52 52 53 53 54 54 54
24 24 24 24 24 23 23 23 23 24 25 27 28 30 31 33 34 35 35 36 37 38 38 38 39 40 41 42 42 43 44 45 46 47 47 48 49 49 49 49 49 49 49
24 25 25 25 25 24 24 25 26 26 28 29 30 32 33 34 35 35 36 36 37 37 37 38 38 39 39 39 40 41 41 42 42 42 42 42 42 42 42 42 42 41 40
24 25 25 26 26 25 26 26 27 28 29 31 32 33 33 34 34 34 35 35 35 35 36 36 36 37 37 37 38 38 39 39 38 38 37 36 35 35 34 34 34 34 33
24 25 25 26 26 26 27 28 29 30 30 31 32 33 33 33 32 32 33 33 33 34 34 34 34 34 34 34 35 35 35 35 34 33 32 31 30 29 29 29 29 29 29
25 25 25 26 27 27 28 28 29 29 30 30 30 30 30 30 30 31 31 32 32 31 31 31 31 31 32 32 32 32 32 31 30 29 28 27 27 27 26 26 26 25 26
25 25 26 26 27 27 27 27 28 28 29 28 29 29 29 29 29 30 30 30 29 29 29 29 29 29 29 29 28 28 27 27 26 26 25 25 25 24 24 24 24 23 23
23 23 24 24 24 25 25 26 26 27 27 27 27 27 27 27 27 28 28 27 27 27 27 26 26 26 25 25 25 24 24 23 23 23 23 23 22 22 21 21 21 22 21
21 21 21 22 22 23 23 24 24 24 25 25 25 25 25 25 25 25 25 25 25 25 24 23 23 23 22 22 21 21 21 21 21 21 20 20 20 20 19 19 19 20 20
19 20 20 21 21 22 22 23 23 22 22 22 22 22 22 22 22 22 22 22 22 21 21 20 20 19 19 19 19 19 19 19 19 19 18 18 18 18 17 18 18 18 18
19 19 19 20 20 21 21 21 21 20 20 20 20 20 20 20 20 20 20 20 20 19 18 18 17 17 17 17 17 18 18 18 17 17 17 17 17 16 16 17 17 17 17
17 18 18 18 19 19 19 19 19 19 18 18 18 17 17 17 17 17 17 17 17 16 15 16 16 16 16 16 16 16 17 16 16 16 16 16 16 15 16 16 16 15 15
16 16 17 17 18 18 18 18 18 17 17 16 16 15 15 15 15 15 15 15 14 14 14 14 14 14 15 15 15 16 16 16 15 15 15 15 15 15 14 14 14 14 13
15 15 16 17 17 17 17 17 16 16 15 14 14 13 13 13 13 13 13 13 12 12 12 12 13 13 14 14 15 15 15 14 14 14 14 14 14 14 13 13 13 12 12
15 15 16 16 15 15 15 15 14 14 13 12 12 12 11 11 11 11 11 11 11 11 11 12 12 12 13 14 14 15 14 13 13 13 13 13 13 13 12 12 11 11 11
14 14 13 13 13 13 12 12 11 11 11 10 10 10 10 10 10 9 9 10 10 10 11 11 12 12 13 13 13 13 13 13 13 13 12 12 12 11 11 10 10 10 10
11 11 11 11 11 10 10 10 9 9 9 8 8 8 8 8 8 8 8 9 9 10 10 11 12 12 13 12 12 13 13 12 12 12 11 11 11 10 9 9 9 10 10
9 9 8 8 8 8 8 7 7 7 7 7 7 6 6 6 7 7 8 8 9 10 10 11 12 12 12 12 12 12 12 12 11 10 10 10 10 9 8 8 9 9 9
7 6 6 6 6 6 5 5 5 5 5 5 5 5 5 6 6 6 7 8 8 9 10 11 11 12 12 11 11 11 11 11 10 10 9 9 8 8 7 8 8 9 9
4 4 4 5 5 4 4 3 3 2 3 3 3 3 4 5 5 6 7 8 8 9 10 11 11 11 11 11 11 11 10 10 10 9 8 8 7 7 7 7 8 9 9
4 4 4 4 4 4 3 2 2 2 2 2 2 3 3 4 5 6 7 8 8 9 10 10 11 11 11 11 11 10 10 9 9 8 8 7 7 7 7 7 8 9 10
5 4 4 4 4 4 4 3 3 2 2 2 2 3 3 4 5 6 7 8 8 9 10 11 11 11 11 11 11 10 10 9 8 7 7 7 6 7 7 8 9 10 11
7 6 5 5 5 5 4 4 4 3 3 3 3 3 4 5 6 6 7 8 9 10 10 11 11 11 12 11 11 10 10 9 8 7 7 7 7 8 9 9 10 11 12
9 8 7 6 6 6 5 5 5 4 4 4 4 4 5 6 6 7 7 8 9 10 10 11 11 12 12 12 11 11 10 10 9 9 9 9 9 9 10 11 12 12 13
11 10 9 9 8 8 7 7 6 6 6 6 6 6 6 7 7 8 8 9 9 10 11 11 11 12 12 12 12 12 12 11 11 10 10 11 11 11 12 12 13 14 14
13 12 11 11 10 10 9 9 8 8 8 8 8 8 8 8 9 9 9 10 10 11 11 11 12 12 12 12 13 13 13 12 12 12 12 13 13 13 13 14 14 15 15
Wind_Direction
257 259 263 267 268 268 269 269 271 274 278 280 282 283 285 285 286 286 287 288 288 289 289 289 290 290 290 290 290 290 289 289 289 289 289 288 288 288 287 287 287 287 287
257 260 264 266 266 267 269 272 275 277 278 281 283 285 286 288 288 289 290 291 291 290 291 291 291 291 291 291 291 291 291 292 293 293 292 291 291 290 290 290 290 291 292
258 261 264 267 268 270 271 273 276 279 281 282 283 285 287 288 289 290 291 292 292 291 292 292 292 292 292 292 292 293 294 295 295 296 296 296 296 295 296 295 296 296 297
259 262 264 266 269 271 273 275 277 279 281 283 285 287 288 289 290 291 292 293 292 293 294 293 293 292 292 292 294 295 296 296 297 299 300 301 302 303 304 305 304 305 305
260 262 265 267 269 271 274 276 278 280 282 284 285 286 288 290 291 292 293 294 294 294 293 293 293 294 294 295 296 297 298 299 301 302 304 306 307 308 309 311 311 311 311
264 265 267 269 270 272 274 275 278 280 281 283 285 287 288 289 290 292 293 294 295 294 294 295 295 296 297 298 299 299 300 302 304 305 307 308 310 311 312 314 315 316 316
265 266 267 269 272 274 275 276 278 280 282 284 286 287 289 289 290 291 292 293 294 295 296 297 298 299 300 302 303 304 305 307 307 308 309 311 313 316 317 319 320 321 321
267 268 270 272 273 275 277 278 280 282 284 286 287 288 289 289 291 292 294 294 295 297 299 300 301 302 303 305 306 307 308 310 311 312 314 316 318 320 322 323 325 325 325
270 271 272 274 276 277 278 280 281 283 285 286 287 288 289 290 293 294 295 297 298 300 301 301 303 305 306 308 310 312 314 315 316 317 319 320 321 323 326 329 330 330 331
273 274 275 275 276 277 279 281 282 283 284 285 287 288 290 292 293 294 296 298 300 301 301 303 305 308 310 312 314 316 319 320 321 323 324 325 326 328 331 333 334 335 338
276 276 276 277 278 278 280 281 282 283 285 286 288 290 292 294 296 297 299 300 301 302 303 306 309 311 314 316 319 321 323 324 326 328 330 331 332 334 337 338 339 340 343
278 279 279 280 280 280 280 281 283 284 285 286 289 292 295 298 300 301 302 304 304 304 306 310 313 316 318 321 323 325 327 329 330 332 333 335 337 338 340 341 343 345 348
280 280 280 281 282 282 281 281 281 281 283 286 290 293 296 299 301 303 305 306 306 306 309 313 316 319 322 324 326 328 330 331 333 334 336 337 339 340 341 343 346 349 353
281 282 283 283 283 283 281 280 280 280 281 283 288 292 296 299 302 306 309 310 310 311 314 317 320 323 326 328 329 331 333 334 334 336 337 338 339 342 343 345 348 352 356
286 287 287 286 286 285 282 280 279 279 278 282 287 292 297 300 304 309 313 316 317 317 320 323 326 328 330 331 332 334 336 337 337 337 338 339 340 342 345 348 351 354 358
291 292 292 292 292 289 286 282 279 276 276 280 285 291 295 299 304 310 316 321 322 323 325 328 329 330 331 333 335 337 338 338 338 338 339 341 343 344 348 352 355 358 3
296 297 298 297 296 292 287 282 277 274 276 279 284 291 297 300 305 312 319 322 324 328 331 332 333 334 334 335 336 337 339 340 340 341 342 344 347 350 353 357 360 3 8
299 300 300 302 303 299 291 281 275 275 277 279 286 294 299 302 307 315 321 325 329 334 336 336 337 337 337 337 338 339 340 341 343 344 347 349 352 356 0 4 7 11 15
306 308 312 313 312 310 302 291 285 282 282 283 290 298 303 307 313 321 329 333 336 339 340 341 342 343 343 342 341 342 344 345 346 348 350 353 358 4 10 15 19 22 26
321 320 322 326 327 327 324 320 312 305 299 296 299 304 312 319 326 333 340 343 344 345 346 348 350 351 350 349 347 347 348 350 352 354 357 2 9 15 22 27 32 34 36
342 337 336 339 347 355 358 360 359 350 340 328 325 329 336 341 345 349 351 352 353 354 355 355 356 356 356 355 354 354 354 356 359 3 8 16 23 29 34 37 40 42 43
15 13 13 15 19 25 30 32 28 23 16 3 356 359 3 4 3 3 4 4 3 3 1 1 3 4 3 2 1 1 3 6 11 17 24 31 36 41 45 47 49 50 50
41 39 38 38 40 42 42 40 36 37 35 30 29 26 24 20 16 16 16 14 11 10 10 11 12 12 11 11 12 13 16 21 28 36 42 47 51 54 56 58 60 62 62
48 49 49 50 50 49 49 49 49 51 50 46 42 39 35 31 28 26 24 21 19 19 19 19 19 20 21 23 25 27 31 37 45 50 55 59 62 64 66 68 70 71 70
52 54 54 54 54 55 55 56 58 57 56 52 49 48 45 41 38 35 32 29 27 26 26 26 28 30 31 33 36 38 42 48 53 58 63 66 69 71 72 74 76 76 76
54 57 58 59 60 60 60 60 59 58 57 55 54 53 51 48 46 43 40 37 35 34 34 35 37 38 40 41 44 47 50 54 59 64 68 71 73 75 77 77 77 76 75
Height
5772 5773 5775 5776 5777 5779 5780 5780 5781 5782 5783 5783 5783 5783 5782 5781 5780 5779 5777 5776 5774 5772 5769 5767 5764 5761 5757 5754 5750 5746 5743 5739 5734 5730 5725 5721 5716 5711 5707 5702 5697 5692 5687
5766 5767 5769 5770 5771 5772 5774 5774 5774 5775 5775 5775 5775 5775 5774 5773 5771 5770 5768 5766 5764 5762 5759 5756 5753 5750 5746 5743 5739 5735 5731 5726 5722 5717 5712 5707 5703 5698 5693 5688 5683 5677 5672
5760 5761 5763 5764 5765 5766 5767 5767 5767 5767 5767 5767 5767 5766 5765 5763 5762 5760 5758 5756 5754 5751 5748 5745 5742 5739 5735 5732 5728 5724 5719 5715 5710 5706 5701 5695 5690 5685 5680 5675 5670 5665 5660
5753 5755 5756 5757 5758 5759 5759 5760 5760 5760 5759 5759 5758 5757 5756 5754 5752 5750 5748 5746 5743 5741 5738 5735 5732 5728 5725 5721 5717 5713 5709 5705 5700 5695 5691 5686 5681 5676 5671 5666 5661 5656 5651
5747 5748 5749 5750 5751 5751 5751 5752 5752 5751 5751 5750 5749 5748 5747 5745 5743 5741 5739 5736 5734 5731 5728 5725 5722 5718 5714 5711 5707 5703 5699 5695 5691 5686 5682 5677 5673 5668 5664 5659 5654 5649 5644
5740 5741 5742 5743 5743 5743 5743 5743 5743 5743 5742 5742 5741 5739 5738 5736 5734 5732 5730 5727 5725 5722 5719 5716 5712 5709 5706 5702 5698 5695 5691 5687 5683 5679 5675 5670 5666 5662 5657 5653 5648 5644 5639
5733 5734 5734 5735 5736 5736 5736 5736 5735 5735 5734 5733 5732 5731 5729 5727 5725 5723 5721 5719 5716 5713 5710 5707 5704 5701 5697 5694 5690 5687 5683 5680 5676 5672 5668 5664 5660 5656 5652 5648 5643 5639 5635
5726 5727 5727 5727 5728 5728 5728 5728 5727 5726 5726 5725 5724 5722 5721 5719 5717 5715 5713 5711 5708 5706 5703 5700 5697 5694 5690 5687 5684 5680 5677 5674 5670 5666 5663 5659 5655 5651 5647 5644 5639 5635 5631
5719 5720 5720 5720 5720 5720 5720 5720 5720 5719 5718 5717 5716 5715 5713 5711 5709 5708 5706 5704 5701 5699 5696 5693 5690 5687 5684 5681 5678 5675 5672 5669 5665 5661 5658 5654 5651 5647 5644 5640 5636 5632 5628
5713 5714 5714 5714 5714 5714 5713 5713 5712 5712 5711 5710 5709 5708 5706 5705 5703 5701 5699 5698 5695 5693 5690 5688 5685 5683 5680 5676 5674 5670 5667 5664 5661 5657 5654 5651 5647 5644 5640 5637 5633 5630 5626
5707 5707 5707 5707 5707 5707 5706 5706 5705 5705 5704 5704 5703 5702 5700 5699 5697 5696 5694 5692 5690 5688 5686 5683 5681 5678 5675 5672 5670 5667 5663 5660 5657 5654 5651 5647 5644 5641 5638 5634 5631 5628 5624
5702 5702 5702 5701 5701 5700 5700 5700 5699 5699 5699 5698 5697 5696 5695 5694 5692 5690 5689 5687 5685 5683 5681 5679 5677 5674 5672 5669 5666 5663 5660 5657 5654 5651 5648 5645 5642 5639 5636 5633 5629 5626 5622
5697 5697 5696 5696 5695 5695 5694 5694 5694 5693 5693 5693 5692 5692 5691 5689 5688 5686 5685 5683 5681 5679 5677 5675 5673 5671 5668 5665 5663 5660 5657 5654 5651 5648 5645 5643 5640 5637 5634 5631 5628 5625 5622
5692 5692 5691 5691 5690 5689 5689 5688 5688 5688 5688 5688 5688 5687 5686 5685 5684 5682 5681 5679 5677 5675 5674 5672 5670 5667 5665 5662 5660 5657 5654 5651 5649 5646 5643 5641 5638 5635 5633 5630 5627 5624 5621
5688 5687 5686 5686 5685 5684 5683 5683 5683 5683 5684 5684 5684 5683 5682 5681 5680 5679 5678 5676 5674 5672 5671 5669 5667 5665 5662 5660 5657 5654 5652 5649 5647 5644 5642 5639 5636 5634 5631 5629 5626 5624 5621
5683 5682 5681 5681 5680 5679 5679 5679 5679 5679 5679 5679 5679 5679 5679 5678 5677 5676 5675 5673 5672 5670 5668 5666 5664 5662 5660 5657 5655 5652 5650 5647 5645 5642 5640 5637 5635 5632 5630 5628 5625 5623 5621
5679 5678 5678 5677 5676 5676 5675 5675 5675 5676 5676 5676 5676 5676 5676 5675 5674 5673 5672 5671 5670 5668 5666 5664 5662 5660 5657 5655 5653 5650 5648 5645 5643 5641 5638 5636 5634 5631 5629 5627 5625 5623 5620
5676 5675 5675 5674 5674 5673 5672 5672 5673 5673 5673 5674 5674 5673 5673 5673 5672 5672 5671 5670 5668 5666 5664 5662 5660 5658 5655 5653 5651 5649 5646 5644 5641 5639 5637 5635 5633 5631 5629 5627 5625 5623 5621
5674 5673 5673 5672 5672 5671 5671 5670 5671 5671 5671 5671 5672 5672 5671 5671 5671 5670 5669 5668 5666 5665 5663 5661 5658 5656 5654 5651 5649 5647 5645 5642 5640 5638 5636 5634 5632 5630 5628 5627 5625 5623 5621
5672 5672 5671 5671 5670 5670 5669 5669 5669 5670 5670 5670 5670 5670 5670 5670 5669 5669 5668 5667 5665 5663 5662 5660 5657 5655 5652 5650 5648 5645 5643 5641 5639 5637 5635 5633 5631 5630 5628 5627 5625 5624 5622
5672 5671 5671 5670 5670 5669 5669 5669 5669 5669 5669 5669 5669 5669 5669 5669 5668 5668 5667 5666 5664 5662 5661 5659 5656 5654 5652 5649 5647 5644 5642 5640 5638 5636 5634 5633 5631 5630 5629 5627 5626 5625 5623
5672 5671 5670 5670 5669 5669 5669 5669 5669 5669 5669 5669 5669 5669 5669 5668 5668 5667 5666 5665 5664 5662 5660 5658 5656 5653 5651 5648 5646 5644 5642 5639 5638 5636 5634 5633 5632 5631 5630 5628 5627 5626 5625
5672 5672 5671 5670 5670 5670 5669 5669 5669 5669 5669 5669 5669 5669 5669 5669 5668 5667 5666 5665 5663 5662 5660 5658 5656 5653 5651 5648 5646 5644 5642 5640 5638 5636 5635 5634 5633 5632 5631 5630 5629 5628 5627
5674 5673 5672 5672 5671 5671 5670 5670 5670 5670 5670 5670 5670 5670 5669 5669 5668 5667 5666 5665 5663 5662 5660 5658 5656 5654 5651 5649 5647 5645 5642 5641 5639 5638 5636 5635 5635 5634 5633 5632 5631 5630 5629
5676 5675 5674 5674 5673 5673 5672 5672 5672 5672 5671 5671 5671 5670 5670 5669 5669 5668 5667 5665 5664 5663 5661 5659 5657 5655 5653 5651 5649 5646 5644 5643 5641 5640 5639 5638 5637 5636 5636 5635 5634 5633 5632
5679 5678 5677 5676 5676 5675 5675 5674 5674 5673 5673 5673 5672 5672 5671 5670 5670 5669 5668 5667 5665 5664 5662 5660 5659 5657 5655 5653 5651 5649 5647 5646 5644 5643 5642 5641 5640 5640 5639 5639 5638 5637 5636